[[{"header":{"parameterUnit":"m.s-1","parameterCategory":1,"la1":30.2991,"la2":30.254,"lo1":-89.0895,"lo2":-89.0444,"dy":0.0017,"dx":0.0017,"nx":28,"ny":28,"refTime":"2024-12-15T09:00:00:Z","depth":0,"parameterNumber":2,"parameterNumberName":"U-component_of_WINDS"},"data":[0,0,0,0,0,0,0,0,0,0,0,0,0,0,0,0,0,0,0,0,0,0,0,0,0,0,0,0,0,0,0,0,0,0,0,0,0,0,0,0,0,0,0,0,0,0,0,0,0,0,0,0,0,0,0,0,0,0,-3.5099,-3.5099,0,-3.512,-3.512,-3.512,-3.506,-3.5059,-3.5057,-3.5055,-3.5077,-3.508,-3.5082,0,0,0,0,0,0,0,0,0,0,0,0,0,-3.501,-3.5012,-3.5099,-3.5099,-3.51,-3.512,-3.512,-3.512,-3.5061,-3.5058,-3.5056,-3.5054,-3.5077,-3.5079,-3.5082,0,0,0,0,0,0,0,0,0,0,0,0,0,-3.5042,-3.5013,-3.5099,-3.5072,-3.507,-3.512,-3.512,-3.512,-3.5061,-3.5058,-3.5056,-3.5053,-3.5076,-3.5079,-3.5083,-3.5159,0,0,-3.5093,-3.5095,0,0,0,0,0,0,0,0,-3.504,-3.5045,-3.5076,-3.5074,-3.5072,-3.5085,-3.5097,-3.5133,-3.5062,-3.5065,-3.5055,-3.5052,-3.5082,-3.5085,-3.5095,-3.516,-3.5161,-3.5093,-3.5096,-3.5097,-3.5098,0,0,0,0,0,0,0,-3.5038,-3.5044,-3.5107,-3.5077,-3.5074,-3.506,-3.5061,-3.5103,-3.5089,-3.5064,-3.506,-3.5063,-3.508,-3.5092,-3.5095,-3.5162,-3.5093,-3.5096,-3.5099,-3.51,-3.5292,-3.5295,0,0,0,0,0,0,-3.5039,-3.5042,-3.5107,-3.5108,-3.5049,-3.5064,-3.5065,-3.5083,-3.5088,-3.5086,-3.5065,-3.506,-3.5087,-3.5091,-3.5096,-3.5186,-3.5097,-3.51,-3.5102,-3.5289,-3.5293,-3.5296,0,0,0,0,0,0,-3.5037,-3.5045,-3.5106,-3.5074,-3.5081,-3.5068,-3.5089,-3.5085,-3.5096,-3.5089,-3.5086,-3.5079,-3.5085,-3.5091,-3.5144,-3.5186,-3.5102,-3.5105,-3.5286,-3.529,-3.5295,-3.5368,0,0,0,0,0,0,-3.5035,-3.5045,-3.5073,-3.5075,-3.5083,-3.5153,-3.5091,-3.5088,-3.5102,-3.5096,-3.5101,-3.51,-3.5083,-3.5139,-3.5148,-3.5189,-3.5108,-3.5282,-3.5288,-3.5293,-3.5362,-3.5374,-3.5385,0,0,0,0,0,-3.5032,-3.5093,-3.5075,-3.5083,-3.5118,-3.5156,-3.516,-3.514,-3.5106,-3.5135,-3.513,-3.5099,-3.518,-3.5145,-3.5154,-3.5198,-3.5279,-3.5286,-3.5293,-3.5356,-3.5372,-3.5385,0,0,0,0,0,0,-3.5097,-3.5093,-3.5073,-3.5136,-3.5147,-3.5146,-3.5181,-3.5157,-3.5177,-3.517,-3.5145,-3.5147,-3.5205,-3.5207,-3.5168,-3.5273,-3.5224,-3.5233,-3.5269,-3.5284,-3.5296,-3.5294,-3.5111,0,0,0,0,0,-3.5118,-3.5149,-3.5144,-3.5201,-3.5207,-3.5194,-3.521,-3.5193,-3.5203,-3.5207,-3.5207,-3.5218,-3.5246,-3.5265,-3.5291,-3.5362,-3.5363,-3.5396,-3.5408,-3.5418,-3.5426,-3.5464,-3.548,-3.5319,-3.5319,-3.5318,0,0,-3.5163,-3.5165,-3.5186,-3.5214,-3.522,-3.5254,-3.5198,-3.5235,-3.526,-3.5213,-3.5263,-3.5264,-3.5275,-3.5338,-3.5366,-3.5341,-3.5471,-3.5427,-3.5434,-3.5437,-3.5473,-3.5488,-3.5502,-3.5323,-3.5322,-3.5322,0,0,-3.5262,-3.5267,-3.5314,-3.5322,-3.5332,-3.5323,-3.5335,-3.5338,-3.5336,-3.5386,-3.5353,-3.5382,-3.5431,-3.544,-3.5452,-3.5556,-3.5529,-3.5565,-3.5627,-3.5665,-3.5678,-3.5689,-3.5726,-3.574,-3.5573,-3.5574,-3.5574,0,-3.5317,-3.5365,-3.5342,-3.5382,-3.5396,-3.5356,-3.5404,-3.5413,-3.5432,-3.5442,-3.5415,-3.5475,-3.548,-3.5545,-3.5571,-3.5581,-3.5594,-3.5564,-3.5678,-3.5688,-3.5699,-3.5734,-3.5748,-3.5578,-3.5577,-3.5577,-3.5577,0,-3.5432,-3.5466,-3.5503,-3.5522,-3.554,-3.5584,-3.5569,-3.559,-3.5573,-3.5567,-3.562,-3.5624,-3.565,-3.5664,-3.5648,-3.5728,-3.5712,-3.5682,-3.5632,-3.5719,-3.5752,-3.5765,-3.5584,-3.5583,-3.5581,-3.558,0,0,-3.557,-3.5577,-3.5591,-3.56,-3.5609,-3.5635,-3.5679,-3.5704,-3.5723,-3.5738,-3.5773,-3.5816,-3.5788,-3.5801,-3.5786,-3.5819,-3.5903,-3.5784,-3.5784,-3.5806,-3.5992,-3.6015,-3.6031,-3.5885,-3.5887,-3.5889,-3.5991,0,-3.5668,-3.5741,-3.5723,-3.5795,-3.5827,-3.5791,-3.5828,-3.5839,-3.5835,-3.5862,-3.5858,-3.5889,-3.5849,-3.5857,-3.5889,-3.5886,-3.594,-3.5878,-3.5919,-3.592,-3.5917,-3.6048,-3.6072,-3.6167,-3.6004,-3.6006,-3.6008,0,-3.579,-3.581,-3.5886,-3.5892,-3.5904,-3.5938,-3.5961,-3.5987,-3.5999,-3.5994,-3.6009,-3.5987,-3.6031,-3.5982,-3.6042,-3.6001,-3.6017,-3.6018,-3.6021,-3.6024,-3.5969,-3.6054,-3.6197,-3.6212,-3.6028,-3.6026,-3.6025,0,-3.5884,-3.593,-3.5981,-3.599,-3.5997,-3.6022,-3.6027,-3.6036,-3.6053,-3.6073,-3.6083,-3.6109,-3.6122,-3.6143,-3.6129,-3.6094,-3.6192,-3.6141,-3.6189,-3.619,-3.6211,-3.621,-3.6358,-3.6222,-3.6222,-3.6221,-3.6221,0,-3.5994,-3.6043,-3.6024,-3.6055,-3.6109,-3.6088,-3.6142,-3.6142,-3.6151,-3.6182,-3.6153,-3.6183,-3.6163,-3.6192,-3.6182,-3.6234,-3.624,-3.6238,-3.6235,-3.6241,-3.6241,-3.625,-3.6243,-3.6225,-3.6224,-3.6223,-3.6223,0,-3.6107,-3.6097,-3.6151,-3.6154,-3.6156,-3.6195,-3.6198,-3.6228,-3.6223,-3.6264,-3.6272,-3.6264,-3.6297,-3.6285,-3.6321,-3.6314,-3.638,-3.6368,-3.6376,-3.6373,-3.6422,-3.6418,-3.6582,-3.6602,-3.6453,-3.6454,-3.6455,0,-3.6178,-3.6214,-3.6222,-3.6241,-3.6248,-3.6279,-3.6296,-3.6278,-3.6297,-3.6314,-3.6343,-3.6373,-3.6397,-3.6452,-3.6449,-3.6477,-3.6465,-3.6521,-3.6469,-3.6474,-3.6466,-3.6464,-3.6468,-3.6531,-3.6533,-3.6534,-3.6535,0,-3.6305,-3.6299,-3.6324,-3.6349,-3.6371,-3.6389,-3.6405,-3.6423,-3.6405,-3.6429,-3.6463,-3.6481,-3.6518,-3.6549,-3.6574,-3.6579,-3.6555,-3.6552,-3.6565,-3.6571,-3.6574,-3.6573,-3.6404,-3.6548,-3.6547,-3.6546,-3.6545,-3.6545,-3.6399,-3.643,-3.644,-3.6471,-3.6481,-3.6497,-3.6526,-3.6524,-3.6552,-3.658,-3.6568,-3.6607,-3.662,-3.6651,-3.666,-3.6691,-3.6669,-3.6687,-3.6692,-3.6697,-3.6703,-3.657,-3.6695,-3.6695,-3.6694,-3.6694,-3.6694,0,-3.6524,-3.653,-3.6558,-3.6581,-3.6606,-3.6581,-3.6598,-3.662,-3.6655,-3.6668,-3.6692,-3.6732,-3.6762,-3.6763,-3.6792,-3.6816,-3.6806,-3.6825,-3.6822,-3.6824,-3.672,-3.6707,-3.6832,-3.6832,-3.6832,-3.6832,-3.6832,-3.6832,-3.6592,-3.6644,-3.6639,-3.6695,-3.67,-3.6738,-3.675,-3.6765,-3.6776,-3.6821,-3.6846,-3.6847,-3.6856,-3.6885,-3.6912,-3.6912,-3.6924,-3.6947,-3.6942,-3.6845,-3.6831,-3.6818,-3.6805,-3.6949,-3.695,-3.7043,-3.7044,-3.7045]},{"header":{"parameterUnit":"m.s-1","parameterCategory":1,"la1":30.2991,"la2":30.254,"lo1":-89.0895,"lo2":-89.0444,"dy":0.0017,"dx":0.0017,"nx":28,"ny":28,"refTime":"2024-12-15T09:00:00:Z","depth":0,"parameterNumber":3,"parameterNumberName":"V-component_of_WINDS"},"data":[0,0,0,0,0,0,0,0,0,0,0,0,0,0,0,0,0,0,0,0,0,0,0,0,0,0,0,0,0,0,0,0,0,0,0,0,0,0,0,0,0,0,0,0,0,0,0,0,0,0,0,0,0,0,0,0,0,0,-0.1905,-0.1906,0,-0.1922,-0.1922,-0.1922,-0.1916,-0.1915,-0.1915,-0.1915,-0.1933,-0.1933,-0.1934,0,0,0,0,0,0,0,0,0,0,0,0,0,-0.1867,-0.1867,-0.1905,-0.1906,-0.1906,-0.1922,-0.1922,-0.1923,-0.1916,-0.1915,-0.1915,-0.1914,-0.1932,-0.1933,-0.1934,0,0,0,0,0,0,0,0,0,0,0,0,0,-0.1883,-0.1868,-0.1905,-0.1904,-0.1904,-0.1922,-0.1922,-0.1923,-0.1916,-0.1915,-0.1915,-0.1914,-0.1932,-0.1933,-0.1934,-0.1954,0,0,-0.1938,-0.1939,0,0,0,0,0,0,0,0,-0.1883,-0.1885,-0.1904,-0.1904,-0.1905,-0.1916,-0.1915,-0.1933,-0.1916,-0.1912,-0.1915,-0.1914,-0.1928,-0.1929,-0.1934,-0.1955,-0.1956,-0.1938,-0.1939,-0.194,-0.194,0,0,0,0,0,0,0,-0.1881,-0.1884,-0.1912,-0.1905,-0.1905,-0.1903,-0.1905,-0.1919,-0.1923,-0.1912,-0.1912,-0.1914,-0.1928,-0.1933,-0.1934,-0.1956,-0.1938,-0.194,-0.194,-0.1941,-0.1992,-0.1992,0,0,0,0,0,0,-0.188,-0.1883,-0.1911,-0.1913,-0.1892,-0.1904,-0.1906,-0.1913,-0.1923,-0.1923,-0.1914,-0.1913,-0.1931,-0.1933,-0.1935,-0.1957,-0.194,-0.1941,-0.1942,-0.1991,-0.1992,-0.1993,0,0,0,0,0,0,-0.1879,-0.1883,-0.1911,-0.1898,-0.1901,-0.1905,-0.1913,-0.1914,-0.1919,-0.1924,-0.1925,-0.1918,-0.193,-0.1933,-0.1949,-0.1958,-0.1941,-0.1943,-0.1991,-0.1992,-0.1992,-0.2003,0,0,0,0,0,0,-0.1878,-0.1883,-0.1891,-0.1898,-0.1902,-0.1925,-0.1914,-0.1915,-0.1921,-0.192,-0.1928,-0.1929,-0.193,-0.1947,-0.195,-0.1959,-0.1944,-0.199,-0.1991,-0.1992,-0.2002,-0.2004,-0.2006,0,0,0,0,0,-0.1877,-0.1893,-0.1891,-0.1894,-0.1912,-0.1926,-0.1928,-0.1928,-0.1922,-0.1929,-0.1932,-0.1929,-0.1956,-0.1949,-0.1952,-0.1962,-0.1989,-0.1991,-0.1992,-0.2001,-0.2003,-0.2006,0,0,0,0,0,0,-0.1888,-0.1895,-0.1892,-0.1911,-0.1918,-0.1924,-0.1934,-0.1931,-0.194,-0.1939,-0.1939,-0.1941,-0.1957,-0.1961,-0.1953,-0.198,-0.1972,-0.1974,-0.1977,-0.198,-0.1982,-0.1981,-0.1945,0,0,0,0,0,-0.1892,-0.1903,-0.1908,-0.1925,-0.1928,-0.1931,-0.1937,-0.1936,-0.1943,-0.1946,-0.195,-0.1957,-0.1967,-0.1973,-0.1983,-0.2002,-0.2003,-0.201,-0.2012,-0.2014,-0.2016,-0.2024,-0.2027,-0.1997,-0.1997,-0.1997,0,0,-0.1902,-0.1907,-0.1914,-0.1927,-0.1932,-0.1942,-0.1933,-0.1945,-0.1953,-0.1948,-0.1963,-0.1966,-0.1973,-0.199,-0.1998,-0.1994,-0.2024,-0.2015,-0.2017,-0.2018,-0.2026,-0.2029,-0.2031,-0.1998,-0.1998,-0.1998,0,0,-0.1926,-0.1931,-0.1944,-0.1949,-0.1956,-0.1957,-0.196,-0.1967,-0.1968,-0.1983,-0.1979,-0.1988,-0.2005,-0.201,-0.2015,-0.2037,-0.2034,-0.204,-0.2051,-0.2059,-0.2062,-0.2064,-0.2071,-0.2073,-0.2042,-0.2042,-0.2042,0,-0.1937,-0.1953,-0.1952,-0.1963,-0.1968,-0.1963,-0.1976,-0.1981,-0.1991,-0.1994,-0.199,-0.201,-0.2015,-0.2032,-0.2037,-0.2041,-0.2044,-0.2039,-0.2061,-0.2063,-0.2065,-0.2072,-0.2074,-0.2042,-0.2042,-0.2042,-0.2042,0,-0.1966,-0.1976,-0.1986,-0.1995,-0.2001,-0.2014,-0.2014,-0.202,-0.2018,-0.202,-0.2034,-0.2039,-0.2048,-0.2052,-0.2051,-0.2069,-0.2066,-0.2061,-0.2053,-0.2069,-0.2075,-0.2077,-0.2043,-0.2043,-0.2043,-0.2043,0,0,-0.1998,-0.2004,-0.2008,-0.2011,-0.2017,-0.2025,-0.2036,-0.2045,-0.205,-0.2056,-0.2065,-0.2079,-0.2074,-0.2079,-0.2078,-0.2085,-0.2101,-0.208,-0.208,-0.2083,-0.2119,-0.2122,-0.2125,-0.2098,-0.2099,-0.2099,-0.2118,0,-0.2021,-0.2041,-0.2039,-0.2057,-0.2066,-0.206,-0.207,-0.2074,-0.2075,-0.2083,-0.2084,-0.2093,-0.2086,-0.2089,-0.2096,-0.2098,-0.2108,-0.2096,-0.2106,-0.2107,-0.2104,-0.2128,-0.2132,-0.215,-0.212,-0.2121,-0.2121,0,-0.2051,-0.2057,-0.2076,-0.2079,-0.2083,-0.2091,-0.2098,-0.2105,-0.2109,-0.211,-0.2114,-0.2111,-0.2122,-0.2113,-0.2127,-0.2118,-0.2122,-0.2123,-0.2124,-0.2125,-0.2115,-0.213,-0.2156,-0.2158,-0.2125,-0.2125,-0.2124,0,-0.2071,-0.2084,-0.2097,-0.21,-0.2104,-0.2109,-0.2111,-0.2115,-0.212,-0.2125,-0.2128,-0.2135,-0.2139,-0.2144,-0.2143,-0.2136,-0.2156,-0.2148,-0.2156,-0.2156,-0.2161,-0.2161,-0.2188,-0.2164,-0.2164,-0.2164,-0.2164,0,-0.2097,-0.2109,-0.2106,-0.2114,-0.2126,-0.2123,-0.2135,-0.2136,-0.2139,-0.2146,-0.2142,-0.2149,-0.2147,-0.2153,-0.2152,-0.2163,-0.2165,-0.2165,-0.2165,-0.2165,-0.2165,-0.2168,-0.2167,-0.2165,-0.2164,-0.2164,-0.2164,0,-0.2122,-0.2121,-0.2134,-0.2136,-0.2136,-0.2145,-0.2146,-0.2153,-0.2153,-0.2162,-0.2164,-0.2164,-0.2171,-0.217,-0.2179,-0.2178,-0.2191,-0.2189,-0.2189,-0.2189,-0.2197,-0.2196,-0.2227,-0.223,-0.2205,-0.2205,-0.2205,0,-0.2139,-0.2147,-0.2149,-0.2153,-0.2155,-0.2162,-0.2166,-0.2163,-0.2168,-0.2172,-0.2178,-0.2184,-0.219,-0.2201,-0.2202,-0.2208,-0.2206,-0.2216,-0.2207,-0.2207,-0.2205,-0.2204,-0.2205,-0.2218,-0.2218,-0.2219,-0.2219,0,-0.2168,-0.2166,-0.2172,-0.2177,-0.2181,-0.2185,-0.2189,-0.2192,-0.2189,-0.2194,-0.2201,-0.2205,-0.2213,-0.2219,-0.2224,-0.2226,-0.2221,-0.2221,-0.2224,-0.2224,-0.2224,-0.2223,-0.2194,-0.2221,-0.2221,-0.2221,-0.222,-0.222,-0.2189,-0.2195,-0.2197,-0.2203,-0.2205,-0.2208,-0.2213,-0.2213,-0.2218,-0.2224,-0.2222,-0.2229,-0.2231,-0.2238,-0.2239,-0.2245,-0.2241,-0.2245,-0.2246,-0.2246,-0.2247,-0.2223,-0.2246,-0.2246,-0.2246,-0.2246,-0.2246,0,-0.2217,-0.2217,-0.2222,-0.2226,-0.2231,-0.2225,-0.2228,-0.2232,-0.2239,-0.2241,-0.2245,-0.2252,-0.2258,-0.2258,-0.2263,-0.2267,-0.2265,-0.2268,-0.2268,-0.2268,-0.225,-0.2248,-0.227,-0.227,-0.227,-0.227,-0.227,-0.227,-0.2232,-0.2242,-0.224,-0.225,-0.225,-0.2257,-0.2259,-0.2261,-0.2263,-0.227,-0.2274,-0.2274,-0.2275,-0.2279,-0.2284,-0.2283,-0.2285,-0.2289,-0.2288,-0.2272,-0.2269,-0.2267,-0.2265,-0.229,-0.229,-0.2305,-0.2305,-0.2305]}]]